Theta_e
330 330 333 334 334 336 337 340 341 342 344 345 347 347 348 348 349 352 353 355 355 356 357 357 357 358 358 357 358 358 359 358 358 357 355 354 354 354 352 353 353 352 352 352 351 352 352 353 349 348 349 344 343 343 343 342 343 342 340 343 341 339 339
329 331 332 334 335 335 337 340 342 343 344 345 347 348 348 348 349 350 353 355 356 357 358 358 358 358 358 358 358 358 358 359 359 358 356 356 354 356 354 353 353 352 352 352 351 352 351 351 349 348 345 344 342 343 341 340 341 340 339 339 338 339 337
330 332 333 333 336 336 338 341 342 343 344 344 346 347 347 347 348 350 353 355 356 357 359 359 358 358 358 358 358 357 358 359 358 358 356 355 354 356 354 354 353 352 352 352 351 351 352 351 349 346 343 342 342 343 340 341 342 340 340 339 339 338 337
331 332 333 335 337 338 339 341 342 343 344 345 345 347 347 347 348 350 353 355 356 357 358 358 358 358 357 357 357 357 358 359 359 358 357 356 355 356 355 353 353 352 353 351 353 351 352 350 348 345 348 342 342 342 341 341 341 340 340 338 338 338 336
330 332 333 334 336 337 338 339 342 342 343 344 345 347 347 347 349 351 353 356 357 357 359 359 360 359 359 358 357 358 358 358 359 358 358 357 357 356 355 353 353 352 353 352 353 351 349 347 346 345 344 342 342 341 342 341 340 340 340 337 336 338 336
328 329 331 334 335 336 338 339 340 342 343 343 344 346 347 348 349 351 352 355 357 358 359 359 359 359 358 358 357 358 359 359 359 359 358 356 356 355 354 354 353 352 353 352 352 350 348 347 345 345 343 343 343 341 342 340 340 340 339 340 337 337 337
328 328 330 333 334 335 337 338 339 341 342 344 345 349 349 349 349 350 352 354 357 357 358 359 359 359 358 358 357 357 357 358 359 358 358 356 356 354 354 354 353 352 352 351 350 349 347 347 344 344 344 343 342 341 341 340 339 339 338 338 339 337 337
327 328 331 333 334 336 336 337 338 340 342 343 344 347 349 350 350 350 351 353 356 358 358 358 359 358 358 358 357 356 357 358 358 359 358 356 356 354 353 354 353 352 351 349 349 349 347 347 344 345 344 342 341 341 341 340 339 339 338 337 336 338 339
326 330 333 334 335 336 337 338 338 339 341 342 342 345 348 349 350 350 351 353 355 356 357 359 359 359 359 358 357 356 357 358 358 358 357 356 355 355 354 353 352 352 350 349 348 349 348 346 345 344 343 342 341 340 340 340 339 339 338 337 336 336 337
328 331 333 335 336 336 336 338 339 339 341 343 343 344 346 348 349 350 350 352 354 355 357 358 359 359 358 358 357 357 357 357 357 357 357 356 355 355 354 354 353 352 350 349 348 348 348 347 346 345 343 342 340 340 340 339 339 339 339 338 338 336 336
329 331 332 333 333 333 334 336 338 339 341 342 342 345 345 347 348 348 349 350 352 354 357 358 359 358 358 357 357 357 356 356 356 356 356 356 356 355 355 354 353 352 350 349 348 348 348 347 346 345 343 342 340 340 340 340 339 338 339 339 339 338 337
329 330 331 331 331 331 333 337 338 338 339 341 343 345 345 346 347 348 348 349 351 352 354 356 358 358 357 357 356 356 356 356 356 356 356 356 355 355 354 354 353 352 351 349 347 348 348 347 346 346 344 342 341 341 340 340 340 339 338 339 339 338 338
329 330 330 330 332 333 335 337 338 339 340 341 344 346 346 346 347 348 348 348 349 351 352 354 356 357 357 357 356 355 356 356 355 355 356 356 355 355 354 353 352 352 350 350 348 348 347 348 346 346 344 343 342 341 341 341 341 339 338 338 339 339 338
337 330 331 332 333 334 335 337 338 339 341 342 344 347 347 347 347 347 347 347 348 350 351 354 355 356 357 356 355 355 356 356 356 356 356 356 356 354 354 353 351 351 350 350 348 347 348 349 347 345 344 343 343 342 342 341 341 340 339 339 338 338 337
329 330 332 335 335 336 337 338 339 340 341 343 345 346 347 347 347 347 348 348 348 349 350 353 354 354 356 356 355 354 356 357 356 356 356 356 355 354 353 352 350 350 349 349 349 349 349 351 349 346 344 343 343 343 343 342 342 342 340 338 337 336 335
330 331 333 334 335 336 337 339 340 341 342 342 344 345 347 347 347 347 348 348 348 348 350 353 353 353 354 355 355 355 355 356 356 356 356 355 355 354 353 351 349 348 347 348 349 349 350 352 350 347 345 343 342 342 343 342 343 338 330 333 337 335 335
329 330 330 332 333 334 336 338 340 341 342 342 343 346 347 347 348 348 348 348 348 348 349 351 352 352 353 354 355 355 355 355 355 355 355 355 355 354 353 351 350 348 348 348 349 349 350 351 349 347 345 343 342 341 341 342 343 331 328 330 333 335 334
328 331 331 334 335 335 336 337 338 340 341 343 344 346 347 347 347 348 348 348 348 348 350 350 351 352 352 353 355 355 354 355 355 355 354 355 354 354 354 352 350 348 348 350 349 349 350 350 349 348 346 344 343 341 341 341 333 327 326 328 328 332 335
328 331 332 334 336 336 335 337 339 341 342 344 345 346 347 348 348 347 348 349 349 350 350 349 350 351 352 353 353 353 354 355 355 355 354 354 355 354 354 352 351 349 349 351 351 349 349 349 348 347 346 345 343 342 343 342 331 325 325 326 326 328 334
322 327 335 339 339 338 338 339 340 342 343 344 346 348 348 349 349 349 349 349 349 349 349 348 348 350 351 352 352 353 354 355 355 354 355 355 355 354 353 352 351 351 351 352 351 349 347 346 346 345 344 343 343 343 343 342 324 322 322 324 327 326 331
324 324 335 338 341 343 342 343 344 345 345 346 347 348 348 348 349 349 349 348 347 347 347 347 347 347 349 350 350 352 353 354 355 355 356 356 356 355 353 352 352 352 352 352 351 348 344 343 342 342 342 342 341 340 339 341 320 320 320 321 322 325 329
323 327 325 337 341 344 346 348 350 352 353 355 353 350 348 347 348 348 347 348 346 346 346 345 346 346 347 347 348 350 352 354 355 355 356 357 357 356 354 353 353 353 353 351 349 347 345 343 342 340 340 340 340 339 337 338 319 319 318 320 321 323 329
320 325 326 326 335 340 345 350 350 353 356 357 356 352 349 347 347 347 346 345 345 344 344 344 344 345 345 346 347 348 350 353 355 356 357 358 357 356 356 355 353 353 352 348 347 345 344 344 343 342 340 340 340 339 338 336 320 317 316 319 320 323 329
315 316 320 321 329 335 343 350 352 352 353 355 355 354 352 348 346 345 345 344 344 343 343 342 343 346 346 345 346 347 349 353 356 357 358 358 357 357 357 356 355 353 349 345 345 345 345 346 345 344 342 340 340 339 338 335 320 315 315 317 317 322 328
318 315 316 319 320 328 339 347 351 352 352 353 352 353 353 350 346 344 344 344 343 343 342 342 343 346 347 346 346 347 351 355 357 358 359 358 358 358 356 355 354 351 347 345 345 346 346 345 344 343 341 341 341 341 339 334 321 313 315 315 315 322 329
327 328 326 326 322 330 338 346 351 351 352 351 351 353 353 352 349 345 344 344 344 343 342 342 343 348 349 348 348 350 355 358 359 359 359 358 358 358 356 355 353 350 347 345 345 344 344 343 342 341 341 341 341 340 340 336 327 320 313 314 314 318 332
332 330 328 331 343 346 345 352 353 353 354 355 354 354 355 354 351 347 345 344 344 343 344 345 345 348 352 353 355 356 358 359 359 358 359 358 358 357 356 355 353 351 349 346 345 343 342 342 341 341 340 341 341 339 338 337 330 323 312 311 312 315 324
336 336 338 337 343 353 350 351 353 353 356 357 358 358 357 356 353 351 348 347 345 345 347 348 349 354 359 359 358 359 359 359 359 359 358 358 357 355 354 354 354 352 350 349 346 344 343 341 339 339 339 340 339 338 337 338 329 326 313 312 310 313 319
338 338 337 338 340 343 352 351 350 349 348 351 358 359 359 358 354 353 352 350 349 350 352 358 361 361 361 360 358 358 358 358 357 357 358 356 355 354 352 352 351 350 349 346 345 343 341 338 337 336 336 336 336 338 338 335 328 320 320 311 310 310 314
340 340 340 342 343 343 345 343 341 340 338 339 343 346 349 356 355 354 354 354 356 358 363 363 363 362 360 357 357 357 356 356 356 357 356 354 353 351 349 347 348 347 344 342 341 339 337 336 337 336 336 335 336 337 337 335 330 319 317 317 311 310 311
336 336 336 335 338 342 339 337 337 338 339 340 342 343 343 342 342 348 355 359 361 363 363 362 360 358 356 356 356 355 355 355 355 354 353 351 350 346 344 343 343 341 341 340 339 337 336 335 336 336 335 334 335 336 336 335 332 326 322 318 313 311 309
336 336 336 335 334 337 336 336 336 337 338 338 342 345 346 345 342 338 341 347 345 343 342 341 341 340 342 343 346 348 349 348 348 347 346 346 346 345 344 342 341 339 339 339 338 337 335 334 334 333 332 332 333 335 335 334 332 328 325 322 318 314 310
335 336 336 336 334 334 335 334 334 336 336 334 339 343 346 345 343 341 342 343 345 346 344 342 341 341 343 345 346 344 344 343 344 346 346 345 344 344 344 342 340 337 336 337 336 335 333 333 331 330 331 330 332 333 334 332 329 325 322 320 318 317 315
333 335 336 336 338 338 335 334 334 336 336 335 338 342 344 342 342 342 343 343 342 342 341 340 340 340 341 342 343 343 344 342 344 344 343 343 343 342 341 340 338 335 333 333 334 332 331 330 329 328 329 329 330 333 333 331 328 325 323 321 320 318 316
332 332 333 334 333 336 337 339 338 338 338 337 340 342 344 344 343 343 343 344 346 345 341 339 337 340 344 345 347 345 344 344 343 342 338 325 315 310 316 334 337 329 322 316 318 333 333 331 330 330 329 330 330 333 332 331 328 327 318 324 316 320 320
333 332 333 337 336 334 335 337 336 338 338 338 340 342 343 343 343 345 346 344 343 343 342 341 344 347 347 347 346 344 344 343 341 336 329 325 320 317 312 305 300 313 324 318 311 307 314 319 329 328 328 327 322 327 334 333 333 318 310 308 307 308 310
332 336 336 338 337 336 337 337 340 339 338 339 339 341 344 343 342 342 342 340 340 342 341 343 343 344 345 345 344 342 343 341 337 331 328 325 324 321 317 314 309 297 297 303 303 300 297 296 297 303 315 327 322 313 311 320 315 308 307 305 305 304 305
330 334 336 336 335 336 336 335 335 337 338 341 342 343 343 346 346 345 346 347 347 346 345 344 343 342 342 343 341 339 340 340 335 331 329 327 326 323 320 317 314 312 299 295 299 298 295 295 295 297 301 310 316 317 318 312 307 305 304 304 303 303 303
Wind_Speed
17 16 15 16 16 17 18 19 20 19 19 18 18 20 19 17 17 16 16 18 19 17 17 16 16 14 15 14 14 13 13 12 11 11 11 11 9 10 10 10 11 11 9 9 9 10 9 9 10 9 8 8 9 8 8 6 6 7 7 7 7 6 6
15 15 15 14 15 16 17 17 18 17 18 18 17 19 18 18 17 17 17 18 19 19 18 17 16 15 15 14 13 14 14 14 13 11 11 10 8 9 11 11 11 11 10 9 9 8 9 9 11 9 9 9 9 9 8 7 7 7 7 7 8 6 6
16 16 16 15 15 15 16 16 17 18 18 17 17 18 19 19 17 18 17 18 19 18 17 17 17 15 14 14 14 15 14 13 13 14 14 12 11 11 11 11 10 10 11 9 8 8 10 9 11 10 10 9 9 9 8 7 7 7 7 6 6 6 5
18 18 18 18 17 17 18 18 20 19 18 19 19 20 19 18 16 16 16 18 19 18 19 18 17 16 15 15 14 14 15 15 15 15 14 12 11 11 11 10 9 9 9 10 9 8 9 8 11 10 10 9 8 8 8 8 7 8 8 7 6 5 4
21 21 18 17 18 18 16 16 18 18 19 20 20 18 18 18 17 15 15 17 19 20 20 20 17 16 14 15 12 12 15 16 15 14 13 12 11 11 12 12 11 11 11 10 9 9 9 8 11 10 9 9 9 8 8 8 8 8 8 7 6 5 6
20 20 17 19 19 18 19 20 20 20 20 19 19 18 17 18 16 18 17 17 17 17 17 17 18 17 16 15 13 13 13 15 15 15 14 13 12 12 13 13 12 12 11 12 10 10 10 9 10 10 11 10 10 10 9 9 8 8 7 7 7 6 6
21 21 19 19 19 18 20 20 19 19 19 18 17 15 16 18 20 19 17 17 18 19 19 19 19 17 16 14 15 15 16 16 15 16 14 14 13 12 13 13 12 12 10 10 11 10 11 11 10 10 12 12 11 11 10 10 9 8 7 7 7 7 7
19 19 19 20 19 19 18 18 19 17 15 13 15 16 18 19 18 19 19 18 18 18 18 19 18 17 16 15 15 17 16 16 15 15 14 15 14 13 13 13 13 12 10 12 11 11 12 11 10 10 11 11 11 11 11 10 11 10 9 9 7 7 7
19 20 19 19 19 19 18 18 18 18 19 20 20 19 20 19 19 20 20 19 18 18 19 19 18 16 15 15 16 17 16 16 15 15 16 16 14 15 14 13 13 12 12 12 11 11 11 11 11 11 11 11 11 11 11 11 11 11 10 10 10 8 7
16 17 19 20 21 19 18 17 15 13 15 17 18 17 19 19 20 19 19 19 18 20 20 19 17 16 16 16 17 18 16 16 16 17 16 16 15 16 15 14 13 12 12 12 11 12 10 12 11 11 11 11 11 12 12 12 11 11 11 11 11 10 9
17 20 19 20 20 19 16 12 13 15 16 17 17 16 18 18 19 19 19 19 19 18 19 18 17 17 17 18 19 18 17 18 17 18 17 17 15 17 16 15 14 12 13 12 12 12 11 11 11 11 12 12 13 13 12 12 12 11 10 10 10 10 9
17 19 19 21 18 14 14 14 14 14 14 14 15 15 16 17 18 18 18 19 18 18 18 18 16 17 18 18 19 18 19 19 18 19 19 18 17 17 17 16 15 14 13 14 14 12 12 12 12 12 13 13 13 12 11 11 11 11 11 10 10 10 9
17 18 17 16 14 15 14 13 15 16 16 16 17 16 16 18 18 18 18 19 18 17 17 17 17 17 18 19 19 18 19 19 19 18 18 17 17 15 15 16 16 15 15 14 14 13 12 12 12 11 13 13 12 12 11 10 10 10 10 10 10 10 10
21 20 18 16 17 17 18 17 17 17 17 16 16 15 14 15 17 18 18 19 18 17 16 15 17 17 17 18 18 18 19 19 19 18 17 16 16 15 16 15 15 15 14 13 14 14 13 13 13 11 11 12 11 11 10 10 9 10 10 11 11 10 10
13 13 11 12 12 14 16 15 14 14 14 14 15 14 14 13 14 13 14 16 17 17 18 17 17 17 17 18 19 19 18 18 17 16 16 16 16 16 16 15 14 13 12 13 13 12 12 12 12 11 11 10 10 10 10 11 11 10 12 12 10 10 11
14 16 16 16 16 17 17 18 16 15 15 14 15 16 15 15 16 17 18 18 19 18 17 16 18 18 18 19 19 19 18 17 16 16 16 16 17 17 15 14 13 12 13 14 14 12 10 10 10 11 11 11 11 10 10 10 9 12 17 15 12 11 10
11 11 11 7 9 11 12 13 14 13 13 14 14 16 16 16 17 18 19 18 19 18 18 18 18 19 19 19 19 18 17 17 16 16 17 17 16 15 14 14 13 12 12 12 12 13 11 10 11 11 10 11 11 11 10 9 9 16 16 17 17 12 10
13 14 14 16 15 14 14 15 15 15 16 16 16 16 16 16 17 17 18 19 19 19 18 18 18 19 20 19 18 18 18 17 17 17 18 16 16 15 14 13 12 12 11 10 11 11 10 11 12 11 11 10 11 11 11 10 13 17 17 16 15 12 8
13 10 15 16 16 17 18 18 16 17 18 17 17 17 17 18 17 18 19 19 20 18 18 19 19 19 19 19 18 18 18 17 18 18 17 16 15 14 13 13 13 12 12 12 10 9 10 11 10 10 10 10 11 11 10 10 13 15 15 13 11 6 4
10 10 10 12 16 18 17 14 14 15 17 18 18 19 19 18 19 19 20 20 18 18 19 19 18 18 19 19 19 19 19 19 18 18 17 15 14 13 13 13 14 14 11 8 8 10 9 9 10 8 9 10 10 10 10 9 9 15 16 17 18 9 8
7 11 19 21 19 17 15 17 16 16 15 14 16 16 16 16 17 17 17 16 17 18 19 19 19 18 18 20 20 19 19 19 19 19 16 15 14 14 14 14 12 11 10 10 10 10 9 10 11 11 10 10 9 8 8 8 14 17 18 18 19 19 15
12 9 11 13 12 14 19 20 19 18 17 15 15 15 15 17 17 16 17 17 18 18 19 19 18 19 19 20 20 20 20 20 19 18 16 15 15 15 14 13 12 12 9 9 9 10 11 11 9 10 11 10 11 10 10 10 18 19 20 22 22 21 14
4 5 6 8 15 15 12 12 12 14 13 13 14 15 16 16 16 16 17 17 17 18 19 19 19 18 19 21 22 22 21 20 19 17 17 16 16 16 15 13 12 10 10 11 11 11 9 9 10 10 11 12 12 13 12 10 15 19 20 23 24 19 13
5 6 7 8 8 13 14 13 14 14 14 15 15 16 15 16 16 16 16 17 17 18 18 19 20 19 20 21 22 21 20 18 18 17 17 16 17 16 14 12 9 10 10 13 12 11 12 10 10 11 11 12 13 13 11 8 14 20 20 23 25 21 14
13 11 10 11 11 10 14 16 18 17 16 16 17 15 15 16 18 18 18 18 19 19 19 20 20 20 20 21 20 19 18 17 17 17 17 16 15 14 13 12 12 11 11 11 11 11 10 10 9 9 8 10 9 10 9 7 12 18 20 21 22 17 9
5 6 5 4 2 9 14 15 16 18 20 20 20 19 18 17 17 18 18 19 19 20 21 22 22 22 22 19 16 16 16 16 17 17 16 16 14 12 12 11 11 12 12 11 10 10 9 9 9 10 9 8 8 8 8 8 9 13 19 21 19 18 10
3 3 4 5 6 3 8 14 15 12 14 14 14 13 14 14 15 17 18 19 19 22 23 23 21 20 17 14 15 16 17 16 17 17 15 14 14 13 12 12 12 12 11 11 9 9 9 11 10 9 8 8 8 9 8 8 9 12 17 16 17 17 14
10 10 11 11 14 6 6 10 11 14 17 17 18 16 15 15 16 16 18 18 20 22 21 20 16 14 13 14 15 15 16 16 15 16 14 14 13 13 12 10 10 10 10 9 9 11 10 9 7 8 9 9 10 8 7 9 14 10 14 15 16 17 16
14 10 7 8 11 14 11 3 1 2 3 4 6 12 14 17 17 16 15 17 19 18 14 10 12 13 13 14 14 14 15 15 17 15 12 12 13 14 12 10 10 10 10 10 10 10 8 8 9 10 9 9 7 7 8 7 8 14 12 15 16 17 15
14 15 17 13 8 8 10 10 10 11 12 11 14 15 17 11 8 12 14 17 15 10 8 11 12 12 13 13 14 14 14 15 15 14 13 14 13 13 13 11 11 10 9 9 9 9 10 9 9 9 9 9 8 8 7 7 7 10 15 14 15 15 16
12 13 11 11 13 10 7 9 10 10 12 13 12 11 10 14 19 19 12 8 7 9 10 11 10 12 13 14 14 15 14 13 13 14 14 13 14 13 12 12 12 10 8 9 9 10 10 9 9 9 9 9 9 8 8 7 6 6 9 13 15 14 12
11 10 10 12 12 10 7 7 9 10 11 13 13 11 12 14 16 19 18 13 15 19 20 19 18 16 14 13 11 10 9 10 10 11 11 11 10 11 10 11 10 9 9 9 8 8 9 8 7 8 9 9 8 9 8 7 6 6 5 4 6 6 8
9 9 9 9 8 8 7 6 9 10 11 12 10 12 14 15 15 14 8 10 7 18 21 20 17 13 10 9 8 9 10 11 9 9 8 8 9 9 9 10 9 9 8 7 7 7 7 8 7 8 9 9 9 8 7 7 6 6 5 5 6 5 6
8 8 9 8 7 6 6 6 7 9 11 11 10 11 14 16 13 12 10 10 10 10 14 19 20 18 16 13 12 10 10 11 13 12 9 9 9 10 10 8 8 9 8 8 8 7 7 7 6 7 8 8 8 8 7 7 7 7 7 7 7 7 6
4 5 6 9 10 11 9 7 7 9 13 12 9 10 12 15 14 11 9 7 6 6 7 11 14 15 19 16 12 12 11 11 10 9 10 11 12 10 6 7 9 9 8 6 2 4 8 6 6 5 6 7 9 9 8 8 8 9 10 12 13 12 9
3 3 5 5 5 7 8 7 5 7 11 10 8 9 11 14 12 11 8 5 3 3 5 7 9 11 15 14 13 12 11 10 10 10 10 11 11 11 11 16 15 9 8 5 5 6 8 8 5 5 5 6 5 6 11 10 10 12 15 15 16 16 17
8 6 7 6 5 5 5 5 5 7 5 6 6 9 9 13 16 12 11 10 7 6 10 10 9 8 11 12 11 12 11 10 10 9 9 10 11 11 12 10 12 16 15 12 8 12 14 14 11 9 8 8 6 1 1 8 15 18 17 17 16 16 14
10 8 6 7 7 6 7 9 10 9 7 4 3 6 5 9 12 13 13 14 13 10 11 11 11 10 9 10 10 11 10 9 10 10 9 8 9 10 10 11 11 8 11 11 11 14 15 14 13 12 12 10 10 9 1 6 17 18 18 17 17 16 16
Wind_Direction
184 183 177 179 180 182 184 184 183 183 184 185 186 186 184 183 183 179 180 180 182 181 184 182 184 184 186 186 185 184 182 181 183 186 193 199 189 178 175 178 180 184 182 184 185 181 178 173 172 171 162 167 160 163 168 159 148 144 136 146 149 159 168
186 185 182 176 176 182 185 184 182 183 184 185 185 185 186 186 183 181 180 179 180 181 181 183 183 186 187 186 185 183 182 182 183 188 193 199 189 176 179 182 183 183 184 187 182 180 174 177 174 168 165 170 165 166 166 159 146 148 147 149 152 165 166
187 188 186 183 178 177 180 181 183 184 185 185 183 184 189 188 184 180 176 177 179 179 179 182 184 184 186 185 185 186 184 181 185 189 195 196 188 179 185 185 183 182 187 184 178 172 179 174 175 167 167 170 167 169 167 158 153 148 149 153 154 159 167
189 189 191 185 182 183 181 181 183 186 186 184 184 186 187 184 182 179 176 176 177 178 179 181 182 183 185 186 187 186 186 186 187 192 196 194 185 181 185 186 181 182 184 189 181 172 176 169 173 170 172 170 168 167 165 161 154 152 153 152 159 171 173
186 189 189 185 187 190 184 183 187 187 186 187 187 182 182 181 178 178 177 177 178 180 180 179 181 184 185 187 188 187 188 187 190 193 195 193 185 183 185 186 184 186 186 184 180 176 174 164 171 172 173 169 169 168 165 161 161 158 158 161 166 172 183
184 188 185 188 190 190 190 190 190 189 188 186 185 182 179 177 180 181 179 176 179 179 177 179 182 183 185 186 186 189 190 192 191 192 193 192 188 186 186 188 188 186 183 185 179 179 176 171 167 169 171 173 171 170 165 162 164 163 160 164 176 174 178
187 188 188 188 189 189 191 194 195 193 190 187 182 175 173 178 183 183 178 179 177 176 179 182 183 183 185 183 188 188 193 192 190 193 193 192 193 186 186 189 189 190 182 174 182 175 179 178 175 170 170 172 171 169 167 167 169 171 167 167 173 181 182
181 186 187 187 188 189 190 195 197 190 184 182 180 177 179 181 180 180 183 180 178 179 182 183 185 184 182 184 187 192 194 193 192 193 192 193 192 192 190 189 190 187 175 180 180 178 179 178 178 177 173 172 172 171 170 170 173 174 173 178 176 181 185
180 181 182 182 187 189 191 194 193 187 181 180 183 185 182 178 180 182 182 178 181 182 185 186 186 183 181 185 189 194 193 192 194 193 194 192 191 196 193 191 189 187 183 181 181 182 178 178 179 178 175 174 173 174 175 175 174 177 175 179 183 186 190
176 179 181 183 187 188 189 193 187 179 179 182 185 182 179 181 181 179 179 181 182 185 185 185 184 183 183 186 191 193 191 195 195 195 194 193 194 196 195 193 191 187 187 184 181 182 181 180 178 176 177 176 176 179 179 180 178 177 178 178 180 186 192
177 179 183 184 187 186 183 172 171 179 183 183 184 182 179 176 178 179 181 181 184 186 183 185 183 183 185 187 191 192 194 196 196 197 196 194 195 196 194 194 192 190 189 184 188 185 178 183 179 177 180 183 183 182 183 182 180 178 177 177 178 182 188
175 178 179 185 182 175 171 172 176 179 181 182 185 183 179 177 178 178 179 183 183 182 182 184 183 185 186 189 191 194 195 196 198 199 197 195 196 195 195 194 193 191 190 189 188 185 185 181 183 181 184 186 187 186 183 180 181 181 180 176 175 179 185
173 175 175 170 168 172 174 171 178 183 183 183 185 183 181 179 177 177 179 182 183 182 181 181 183 185 187 190 193 194 196 196 199 199 197 196 197 196 195 196 193 191 192 190 189 185 185 186 184 186 184 187 186 186 181 179 180 180 180 180 177 179 183
169 171 171 168 169 170 173 177 181 184 187 186 186 183 179 181 178 177 177 181 183 180 179 180 184 186 188 190 194 197 198 198 200 199 197 196 197 198 198 196 194 192 189 188 192 191 188 187 187 184 183 185 185 183 179 180 178 179 181 182 181 177 182
157 157 148 154 160 161 164 175 181 182 181 181 179 178 178 178 178 174 178 181 183 182 182 179 182 188 188 191 195 199 199 198 199 199 197 196 198 199 199 197 195 189 186 190 195 195 192 186 182 178 183 185 181 179 181 183 186 184 184 181 174 179 182
158 159 162 163 165 165 170 175 177 180 181 179 177 178 176 178 178 179 180 183 184 184 181 176 184 188 189 192 196 198 199 199 198 197 195 197 199 200 196 194 191 187 188 192 195 193 186 181 178 178 182 182 182 180 184 188 190 193 188 181 177 181 181
156 161 156 159 160 167 172 176 179 180 179 180 180 179 179 179 182 183 183 183 183 186 182 180 184 188 190 193 194 196 198 198 199 197 198 199 198 196 194 192 190 189 188 189 189 189 181 171 173 179 182 182 180 183 189 192 193 187 187 184 179 177 178
163 169 175 172 177 177 180 182 185 183 184 186 186 183 181 183 184 182 185 184 187 187 183 183 185 188 191 191 190 194 196 198 198 199 200 198 196 193 191 189 189 190 187 180 180 181 171 172 179 179 178 179 180 187 192 197 197 184 182 181 173 180 175
175 186 185 178 179 184 187 189 187 184 186 187 189 187 188 184 181 185 187 187 189 184 183 187 189 189 190 189 190 193 196 197 198 200 198 197 193 189 187 188 190 190 187 184 175 154 164 175 173 178 176 176 179 188 194 202 193 178 171 163 150 187 171
180 172 199 201 186 186 189 190 193 192 188 189 190 190 191 186 184 189 189 189 185 182 186 189 191 189 189 189 191 193 195 196 198 199 198 193 189 185 186 188 192 194 188 167 150 156 158 160 166 170 177 178 180 188 192 199 164 167 168 156 147 176 206
197 173 186 195 189 189 190 191 192 192 193 195 193 193 191 189 191 190 190 185 183 186 187 190 190 191 189 191 193 193 194 196 197 198 194 188 185 185 187 189 189 183 175 166 159 149 144 145 168 176 175 175 179 183 185 193 167 169 167 154 155 183 203
213 195 172 186 200 198 189 188 189 191 192 191 190 192 188 191 192 189 190 186 186 188 191 190 191 192 190 192 193 194 195 195 196 194 188 184 183 185 187 186 182 173 157 141 138 141 154 172 164 164 172 176 181 186 190 187 174 173 161 159 171 187 204
193 202 208 189 182 194 201 196 191 190 184 184 190 186 191 192 190 189 188 188 190 190 192 193 194 194 192 194 194 195 194 193 191 187 183 182 182 184 183 179 171 155 142 138 146 151 156 164 174 172 176 183 185 190 194 184 176 169 167 168 177 187 207
241 214 213 224 190 181 185 193 193 188 181 184 187 189 191 190 188 188 188 190 191 192 195 195 197 196 195 197 196 194 192 188 184 180 179 180 181 179 178 169 153 146 145 149 154 158 167 171 169 175 178 179 189 190 186 168 176 173 176 177 185 188 191
299 261 232 208 216 202 191 184 187 185 189 186 191 192 192 190 187 186 189 191 193 194 196 199 198 198 198 198 195 190 184 181 178 176 174 175 174 171 164 159 154 150 150 152 157 160 165 171 169 169 173 179 178 167 155 156 176 181 178 184 190 188 186
17 355 348 334 243 206 203 201 191 188 187 190 192 188 190 191 188 188 190 194 193 195 199 200 199 199 200 195 184 180 176 174 172 169 167 165 161 158 154 149 147 152 155 156 158 160 160 158 159 167 177 170 155 156 152 155 169 185 185 189 186 183 176
8 11 355 17 20 95 194 188 184 191 191 191 194 195 192 189 187 190 194 194 195 199 202 202 199 196 193 181 175 171 169 167 165 160 157 157 156 154 153 155 154 154 153 156 159 155 152 164 169 166 161 153 151 160 165 153 164 184 190 189 181 183 177
27 25 20 359 353 1 159 191 196 186 188 189 193 194 190 188 195 196 195 195 199 202 203 203 192 184 172 168 166 162 159 158 154 151 152 152 150 150 154 151 148 150 151 149 152 160 164 159 142 143 148 155 159 164 150 152 159 168 187 184 184 185 188
357 359 28 29 4 1 13 31 225 267 294 297 222 195 191 194 198 200 195 199 203 203 200 178 170 164 160 156 152 150 150 151 148 147 147 149 148 147 144 144 144 145 147 151 156 157 146 134 141 147 152 154 148 140 142 145 151 163 172 187 182 189 195
16 8 358 354 15 19 30 43 43 40 32 29 28 18 5 335 266 212 200 205 199 180 150 149 154 147 142 140 141 142 143 143 139 137 141 140 139 138 139 142 143 145 149 143 138 136 141 147 147 149 146 144 136 133 135 143 148 175 174 178 187 189 193
24 16 8 5 358 353 62 66 45 47 46 35 29 27 35 42 19 330 266 214 155 139 133 128 124 128 132 135 137 136 137 135 135 139 140 139 137 135 136 138 141 136 132 130 133 142 149 154 148 145 145 140 138 134 142 148 153 160 182 176 182 184 185
26 21 23 15 5 9 1 49 67 60 59 41 34 47 55 52 50 39 349 353 65 77 75 67 57 49 47 55 51 57 67 79 84 91 96 112 128 130 130 128 127 126 132 136 140 145 145 148 142 139 142 140 136 142 148 150 145 140 133 130 131 136 154
19 29 28 24 11 359 12 34 59 61 63 57 44 60 63 63 71 65 32 350 21 99 102 99 95 83 64 59 63 75 85 100 106 112 121 116 110 108 115 119 121 120 113 113 127 135 144 144 138 134 141 143 141 139 140 139 137 130 126 133 144 148 148
12 14 18 28 23 29 34 35 57 62 66 67 62 64 73 77 69 66 44 58 43 27 89 112 119 123 122 125 131 137 139 131 140 142 136 119 113 118 113 101 107 112 112 122 132 139 139 136 137 142 144 146 140 138 140 143 144 148 157 161 156 156 158
1 25 22 27 29 36 44 43 51 68 87 91 89 79 81 86 87 77 71 51 74 100 103 109 122 133 135 139 145 140 138 137 139 130 110 88 62 45 43 113 124 108 83 36 19 133 137 132 137 150 144 139 147 150 153 152 166 190 180 169 166 159 163
349 29 41 53 38 29 39 43 51 86 107 119 113 99 100 103 101 102 92 66 9 90 113 104 111 126 129 135 134 132 131 128 119 107 111 110 103 94 70 40 41 58 108 108 37 44 84 109 144 149 143 119 103 160 157 174 193 164 161 163 165 166 168
24 40 33 25 44 42 31 20 12 349 41 86 114 115 124 128 128 138 147 149 168 171 143 139 134 141 134 130 133 133 127 122 109 106 104 108 111 106 105 91 48 42 56 79 76 85 79 76 79 77 97 135 141 18 307 178 149 156 166 165 166 163 162
32 31 31 22 9 8 34 43 28 17 349 28 47 116 150 132 126 132 140 147 154 162 150 150 147 147 136 124 118 113 113 112 117 120 115 111 110 112 115 111 107 68 37 49 84 84 82 79 70 67 74 93 125 136 52 156 157 161 164 168 161 162 165